User: anonymous   Login
Location: Bonn
(50.7330°N, 7.1000°E)
Time: 16:09:29
(UTC+02:00)
Language:

Cosmos 1933 Rocket - Orbit

View from above orbital plane
View from above orbital plane
View from above satellite
View from above satellite

Ground track
Ground track

The orbit data is extracted from the following two-line orbital elements,

1 18959U 88020B   16207.52770750  .00000092  00000-0  82554-5 0  9999
2 18959  82.5358 216.0391 0018108 131.0797 229.1986 14.83287263532150
Epoch (UTC): 25 July 2016 12:39:53
Eccentricity: 0.0018108
inclination: 82.5358°
perigee height: 606 km
apogee height: 631 km
right ascension of ascending node: 216.0391°
argument of perigee: 131.0797°
revolutions per day: 14.83287263
mean anomaly at epoch: 229.1986°
orbit number at epoch: 53215

The dashed part of the orbit path shows where the satellite is in the earth's shadow,  

DLR